Year,Month,Day,Hour,Minute,Value (Times are PST for temperature in C)
2009,09,20,00,01,10.70
2009,09,20,00,03,10.60
2009,09,20,00,05,10.40
2009,09,20,00,07,10.40
2009,09,20,00,09,10.30
2009,09,20,00,10,10.30
2009,09,20,00,12,10.20
2009,09,20,00,14,10.10
2009,09,20,00,15,10.10
2009,09,20,00,17,10.00
2009,09,20,00,19,10.00
2009,09,20,00,20,10.00
2009,09,20,00,22,10.00
2009,09,20,00,24,10.00
2009,09,20,00,25,10.10
2009,09,20,00,27,10.10
2009,09,20,00,29,10.10
2009,09,20,00,30,10.10
2009,09,20,00,32,10.20
2009,09,20,00,34,10.20
2009,09,20,00,35,10.10
2009,09,20,00,37,10.10
2009,09,20,00,39,10.10
2009,09,20,00,40,10.10
2009,09,20,00,44,10.00
2009,09,20,00,49,9.80
2009,09,20,00,52,9.90
2009,09,20,00,59,10.20
2009,09,20,01,07,10.30
2009,09,20,01,10,10.40
2009,09,20,01,15,10.70
2009,09,20,01,17,10.60
2009,09,20,01,19,10.50
2009,09,20,01,20,10.40
2009,09,20,01,22,10.40
2009,09,20,01,24,10.30
2009,09,20,01,25,10.30
2009,09,20,01,27,10.20
2009,09,20,01,29,10.10
2009,09,20,01,30,10.10
2009,09,20,01,32,10.00
2009,09,20,01,34,10.00
2009,09,20,01,35,9.90
2009,09,20,01,37,9.90
2009,09,20,01,39,9.80
2009,09,20,01,40,9.80
2009,09,20,02,00,9.70
2009,09,20,02,09,9.40
2009,09,20,02,14,9.30
2009,09,20,02,15,9.20
2009,09,20,02,16,9.20
2009,09,20,02,18,9.20
2009,09,20,02,19,9.20
2009,09,20,02,20,9.20
2009,09,20,02,22,9.20
2009,09,20,03,09,8.60
2009,09,20,03,15,8.50
2009,09,20,03,17,8.40
2009,09,20,03,19,8.40
2009,09,20,03,20,8.40
2009,09,20,03,35,8.20
2009,09,20,04,15,7.40
2009,09,20,04,17,7.40
2009,09,20,04,19,7.40
2009,09,20,04,20,7.40
2009,09,20,04,47,7.10
2009,09,20,04,48,7.10
2009,09,20,05,00,7.10
2009,09,20,05,09,6.90
2009,09,20,05,15,6.90
2009,09,20,05,17,6.90
2009,09,20,05,19,6.90
2009,09,20,05,20,6.90
2009,09,20,06,15,7.30
2009,09,20,06,17,7.40
2009,09,20,06,19,7.50
2009,09,20,06,20,7.50
2009,09,20,06,22,7.60
2009,09,20,06,24,7.60
2009,09,20,06,25,7.60
2009,09,20,06,27,7.70
2009,09,20,06,29,7.70
2009,09,20,06,30,7.70
2009,09,20,06,32,7.80
2009,09,20,06,34,7.80
2009,09,20,06,35,7.80
2009,09,20,07,09,8.00
2009,09,20,07,15,8.10
2009,09,20,07,20,8.20
2009,09,20,07,25,8.20
2009,09,20,07,30,8.30
2009,09,20,07,35,8.30
2009,09,20,07,40,8.40
2009,09,20,07,45,8.40
2009,09,20,07,50,8.60
2009,09,20,08,09,8.60
2009,09,20,08,15,8.60
2009,09,20,08,20,8.60
2009,09,20,08,25,8.70
2009,09,20,09,03,9.30
2009,09,20,09,04,9.30
2009,09,20,09,05,9.30
2009,09,20,09,06,9.40
2009,09,20,09,07,9.40
2009,09,20,09,08,9.40
2009,09,20,09,09,9.40
2009,09,20,09,10,9.50
2009,09,20,09,11,9.50
2009,09,20,09,12,9.50
2009,09,20,09,13,9.60
2009,09,20,09,14,9.60
2009,09,20,09,15,9.60
2009,09,20,09,20,9.70
2009,09,20,10,15,10.80
2009,09,20,10,16,10.80
2009,09,20,10,17,10.90
2009,09,20,10,18,10.90
2009,09,20,10,19,10.90
2009,09,20,10,20,10.90
2009,09,20,10,21,11.00
2009,09,20,10,22,11.00
2009,09,20,10,23,11.00
2009,09,20,10,24,11.00
2009,09,20,10,25,11.10
2009,09,20,10,26,11.10
2009,09,20,10,27,11.10
2009,09,20,10,28,11.10
2009,09,20,10,29,11.10
2009,09,20,10,30,11.10
2009,09,20,10,31,11.10
2009,09,20,10,32,11.10
2009,09,20,10,33,11.20
2009,09,20,10,34,11.20
2009,09,20,10,35,11.20
2009,09,20,10,36,11.20
2009,09,20,10,37,11.20
2009,09,20,10,38,11.20
2009,09,20,10,39,11.20
2009,09,20,10,40,11.20
2009,09,20,10,41,11.20
2009,09,20,10,42,11.20
2009,09,20,10,43,11.20
2009,09,20,10,44,11.20
2009,09,20,10,45,11.30
2009,09,20,10,46,11.30
2009,09,20,10,47,11.30
2009,09,20,10,48,11.30
2009,09,20,10,49,11.40
2009,09,20,10,50,11.40
2009,09,20,10,51,11.40
2009,09,20,10,52,11.40
2009,09,20,10,53,11.40
2009,09,20,10,54,11.40
2009,09,20,10,55,11.40
2009,09,20,10,56,11.40
2009,09,20,10,57,11.50
2009,09,20,10,58,11.60
2009,09,20,10,59,11.60
2009,09,20,11,00,11.60
2009,09,20,11,01,11.60
2009,09,20,11,02,11.70
2009,09,20,11,03,11.70
2009,09,20,11,04,11.70
2009,09,20,11,05,11.80
2009,09,20,11,06,11.80
2009,09,20,11,07,11.90
2009,09,20,11,08,11.90
2009,09,20,11,09,11.90
2009,09,20,11,10,12.00
2009,09,20,11,11,12.00
2009,09,20,11,12,12.10
2009,09,20,11,13,12.10
2009,09,20,11,14,12.10
2009,09,20,11,15,12.10
2009,09,20,11,16,12.20
2009,09,20,11,17,12.20
2009,09,20,11,18,12.20
2009,09,20,11,19,12.30
2009,09,20,11,20,12.40
2009,09,20,11,21,12.40
2009,09,20,11,22,12.50
2009,09,20,11,23,12.60
2009,09,20,11,24,12.60
2009,09,20,11,25,12.60
2009,09,20,11,26,12.60
2009,09,20,11,27,12.60
2009,09,20,11,28,12.60
2009,09,20,11,29,12.50
2009,09,20,11,30,12.50
2009,09,20,11,31,12.50
2009,09,20,11,32,12.50
2009,09,20,11,33,12.50
2009,09,20,11,34,12.50
2009,09,20,11,35,12.50
2009,09,20,11,36,12.50
2009,09,20,11,37,12.50
2009,09,20,11,38,12.50
2009,09,20,11,39,12.60
2009,09,20,11,40,12.60
2009,09,20,11,41,12.60
2009,09,20,11,42,12.70
2009,09,20,11,43,12.70
2009,09,20,11,44,12.70
2009,09,20,11,45,12.80
2009,09,20,11,46,12.80
2009,09,20,11,47,12.80
2009,09,20,11,48,12.80
2009,09,20,11,49,12.80
2009,09,20,11,50,12.90
2009,09,20,11,51,12.90
2009,09,20,11,52,13.00
2009,09,20,11,53,13.00
2009,09,20,11,54,13.10
2009,09,20,11,55,13.10
2009,09,20,11,56,13.20
2009,09,20,11,57,13.30
2009,09,20,11,58,13.40
2009,09,20,11,59,13.50
2009,09,20,12,00,13.60
2009,09,20,12,01,13.70
2009,09,20,12,02,13.70
2009,09,20,12,03,13.70
2009,09,20,12,04,13.70
2009,09,20,12,05,13.70
2009,09,20,12,06,13.70
2009,09,20,12,07,13.60
2009,09,20,12,08,13.60
2009,09,20,12,09,13.60
2009,09,20,12,10,13.60
2009,09,20,12,11,13.60
2009,09,20,12,12,13.60
2009,09,20,12,13,13.60
2009,09,20,12,14,13.60
2009,09,20,12,15,13.60
2009,09,20,12,16,13.70
2009,09,20,12,17,13.70
2009,09,20,12,18,13.80
2009,09,20,12,19,13.90
2009,09,20,12,20,14.10
2009,09,20,12,21,14.20
2009,09,20,12,22,14.30
2009,09,20,12,23,14.40
2009,09,20,12,24,14.40
2009,09,20,12,25,14.60
2009,09,20,12,26,14.60
2009,09,20,12,27,14.60
2009,09,20,12,28,14.60
2009,09,20,12,29,14.60
2009,09,20,12,30,14.70
2009,09,20,12,31,14.80
2009,09,20,12,32,14.80
2009,09,20,12,33,15.00
2009,09,20,12,34,15.00
2009,09,20,12,35,15.10
2009,09,20,12,36,15.20
2009,09,20,12,37,15.20
2009,09,20,12,38,15.20
2009,09,20,12,39,15.20
2009,09,20,12,40,15.30
2009,09,20,12,41,15.30
2009,09,20,12,42,15.20
2009,09,20,12,43,15.20
2009,09,20,12,44,15.20
2009,09,20,12,45,15.20
2009,09,20,12,46,15.20
2009,09,20,12,47,15.30
2009,09,20,12,48,15.30
2009,09,20,12,49,15.30
2009,09,20,12,50,15.40
2009,09,20,12,51,15.50
2009,09,20,12,52,15.50
2009,09,20,12,53,15.60
2009,09,20,12,54,15.60
2009,09,20,12,55,15.60
2009,09,20,12,56,15.60
2009,09,20,12,57,15.60
2009,09,20,12,58,15.60
2009,09,20,12,59,15.70
2009,09,20,13,00,15.70
2009,09,20,13,01,15.70
2009,09,20,13,02,15.80
2009,09,20,13,03,15.80
2009,09,20,13,04,15.80
2009,09,20,13,05,15.80
2009,09,20,13,06,15.90
2009,09,20,13,07,15.90
2009,09,20,13,08,15.90
2009,09,20,13,09,15.90
2009,09,20,13,10,15.90
2009,09,20,13,11,15.90
2009,09,20,13,12,15.90
2009,09,20,13,13,15.90
2009,09,20,13,14,15.90
2009,09,20,13,15,15.80
2009,09,20,13,16,15.80
2009,09,20,13,17,15.80
2009,09,20,13,18,15.80
2009,09,20,13,19,15.80
2009,09,20,13,20,15.80
2009,09,20,13,21,15.80
2009,09,20,13,22,15.80
2009,09,20,13,23,15.80
2009,09,20,13,24,15.70
2009,09,20,13,25,15.70
2009,09,20,13,26,15.70
2009,09,20,13,27,15.70
2009,09,20,13,28,15.80
2009,09,20,13,29,15.80
2009,09,20,13,30,15.80
2009,09,20,13,31,15.90
2009,09,20,13,32,15.90
2009,09,20,13,33,15.90
2009,09,20,13,34,16.00
2009,09,20,13,35,16.10
2009,09,20,13,36,16.20
2009,09,20,13,37,16.30
2009,09,20,13,38,16.30
2009,09,20,13,39,16.30
2009,09,20,13,40,16.40
2009,09,20,13,41,16.50
2009,09,20,13,42,16.50
2009,09,20,13,43,16.60
2009,09,20,13,44,16.60
2009,09,20,13,45,16.60
2009,09,20,13,46,16.70
2009,09,20,13,47,16.80
2009,09,20,13,48,16.90
2009,09,20,13,49,16.90
2009,09,20,13,50,17.10
2009,09,20,13,51,17.10
2009,09,20,13,52,17.20
2009,09,20,13,53,17.20
2009,09,20,13,54,17.30
2009,09,20,13,55,17.30
2009,09,20,13,56,17.40
2009,09,20,13,57,17.40
2009,09,20,13,58,17.50
2009,09,20,13,59,17.60
2009,09,20,14,00,17.60
2009,09,20,14,01,17.70
2009,09,20,14,02,17.70
2009,09,20,14,03,17.80
2009,09,20,14,04,17.80
2009,09,20,14,05,17.90
2009,09,20,14,06,18.00
2009,09,20,14,07,18.00
2009,09,20,14,08,18.00
2009,09,20,14,09,18.00
2009,09,20,14,10,18.10
2009,09,20,14,11,18.10
2009,09,20,14,12,18.20
2009,09,20,14,13,18.30
2009,09,20,14,14,18.40
2009,09,20,14,15,18.60
2009,09,20,14,16,18.70
2009,09,20,14,17,18.70
2009,09,20,14,18,18.80
2009,09,20,14,19,18.80
2009,09,20,14,20,18.80
2009,09,20,14,21,18.80
2009,09,20,14,22,18.90
2009,09,20,14,23,19.00
2009,09,20,14,24,19.10
2009,09,20,14,25,19.10
2009,09,20,14,26,19.10
2009,09,20,14,27,19.20
2009,09,20,14,28,19.20
2009,09,20,14,29,19.30
2009,09,20,14,30,19.30
2009,09,20,14,31,19.40
2009,09,20,14,32,19.50
2009,09,20,14,33,19.50
2009,09,20,14,34,19.50
2009,09,20,14,35,19.50
2009,09,20,14,36,19.50
2009,09,20,14,37,19.50
2009,09,20,14,38,19.50
2009,09,20,14,39,19.60
2009,09,20,14,40,19.60
2009,09,20,14,41,19.60
2009,09,20,14,42,19.60
2009,09,20,14,43,19.70
2009,09,20,14,44,19.70
2009,09,20,14,45,19.80
2009,09,20,14,46,19.80
2009,09,20,14,47,19.80
2009,09,20,14,48,19.80
2009,09,20,14,49,19.80
2009,09,20,14,50,19.80
2009,09,20,14,51,19.70
2009,09,20,14,52,19.70
2009,09,20,14,53,19.70
2009,09,20,14,54,19.80
2009,09,20,14,55,19.80
2009,09,20,14,56,19.90
2009,09,20,14,57,20.00
2009,09,20,14,58,20.10
2009,09,20,14,59,20.20
2009,09,20,15,00,20.30
2009,09,20,15,01,20.40
2009,09,20,15,02,20.40
2009,09,20,15,03,20.50
2009,09,20,15,04,20.60
2009,09,20,15,05,20.60
2009,09,20,15,06,20.50
2009,09,20,15,07,20.40
2009,09,20,15,08,20.40
2009,09,20,15,09,20.40
2009,09,20,15,10,20.40
2009,09,20,15,11,20.40
2009,09,20,15,12,20.40
2009,09,20,15,13,20.30
2009,09,20,15,14,20.30
2009,09,20,15,15,20.30
2009,09,20,15,16,20.30
2009,09,20,15,17,20.30
2009,09,20,15,18,20.30
2009,09,20,15,19,20.30
2009,09,20,15,20,20.20
2009,09,20,15,21,20.20
2009,09,20,15,22,20.20
2009,09,20,15,23,20.20
2009,09,20,15,24,20.20
2009,09,20,15,25,20.20
2009,09,20,15,26,20.20
2009,09,20,15,27,20.20
2009,09,20,15,28,20.20
2009,09,20,15,29,20.30
2009,09,20,15,30,20.40
2009,09,20,15,31,20.40
2009,09,20,15,32,20.40
2009,09,20,15,33,20.50
2009,09,20,15,34,20.50
2009,09,20,15,35,20.60
2009,09,20,15,36,20.60
2009,09,20,15,37,20.60
2009,09,20,15,38,20.60
2009,09,20,15,39,20.60
2009,09,20,15,40,20.70
2009,09,20,15,41,20.60
2009,09,20,15,42,20.60
2009,09,20,15,43,20.60
2009,09,20,15,44,20.70
2009,09,20,15,45,20.70
2009,09,20,15,46,20.70
2009,09,20,15,47,20.80
2009,09,20,15,48,20.80
2009,09,20,15,49,20.80
2009,09,20,15,50,20.80
2009,09,20,15,51,20.80
2009,09,20,15,52,20.80
2009,09,20,15,53,20.80
2009,09,20,15,54,20.80
2009,09,20,15,55,20.80
2009,09,20,15,56,20.80
2009,09,20,15,57,20.70
2009,09,20,15,58,20.70
2009,09,20,15,59,20.70
2009,09,20,16,00,20.80
2009,09,20,16,01,20.80
2009,09,20,16,02,20.80
2009,09,20,16,03,20.80
2009,09,20,16,04,20.80
2009,09,20,16,05,20.80
2009,09,20,16,06,20.80
2009,09,20,16,07,20.70
2009,09,20,16,08,20.70
2009,09,20,16,09,20.70
2009,09,20,16,10,20.70
2009,09,20,16,11,20.70
2009,09,20,16,12,20.70
2009,09,20,16,13,20.80
2009,09,20,16,14,20.80
2009,09,20,16,15,20.80
2009,09,20,16,16,20.90
2009,09,20,16,17,21.00
2009,09,20,16,18,21.00
2009,09,20,16,19,21.10
2009,09,20,16,20,21.10
2009,09,20,16,21,21.10
2009,09,20,16,22,21.10
2009,09,20,16,23,21.10
2009,09,20,16,24,21.10
2009,09,20,16,25,21.10
2009,09,20,16,26,21.20
2009,09,20,16,27,21.20
2009,09,20,16,28,21.20
2009,09,20,16,29,21.20
2009,09,20,16,30,21.30
2009,09,20,16,31,21.30
2009,09,20,16,32,21.30
2009,09,20,16,33,21.30
2009,09,20,16,34,21.30
2009,09,20,16,35,21.30
2009,09,20,16,36,21.40
2009,09,20,16,37,21.40
2009,09,20,16,38,21.30
2009,09,20,16,39,21.30
2009,09,20,16,40,21.20
2009,09,20,16,41,21.20
2009,09,20,16,42,21.10
2009,09,20,16,43,21.10
2009,09,20,16,44,21.10
2009,09,20,16,45,21.10
2009,09,20,16,46,21.10
2009,09,20,16,47,21.10
2009,09,20,16,48,21.10
2009,09,20,16,49,21.10
2009,09,20,16,50,21.00
2009,09,20,16,51,20.90
2009,09,20,16,52,20.90
2009,09,20,16,53,20.90
2009,09,20,16,54,20.90
2009,09,20,16,55,20.90
2009,09,20,16,56,20.90
2009,09,20,16,57,20.90
2009,09,20,16,58,20.90
2009,09,20,16,59,20.80
2009,09,20,17,00,20.70
2009,09,20,17,01,20.70
2009,09,20,17,02,20.60
2009,09,20,17,03,20.60
2009,09,20,17,04,20.40
2009,09,20,17,05,20.40
2009,09,20,17,06,20.30
2009,09,20,17,07,20.10
2009,09,20,17,08,19.90
2009,09,20,17,09,19.70
2009,09,20,17,10,19.60
2009,09,20,17,11,19.50
2009,09,20,17,12,19.40
2009,09,20,17,13,19.30
2009,09,20,17,14,19.30
2009,09,20,17,15,19.20
2009,09,20,17,16,19.20
2009,09,20,17,17,19.10
2009,09,20,17,18,19.10
2009,09,20,17,19,19.00
2009,09,20,17,20,19.00
2009,09,20,17,21,18.90
2009,09,20,17,22,18.90
2009,09,20,17,23,18.90
2009,09,20,17,24,19.00
2009,09,20,17,25,19.00
2009,09,20,17,26,19.00
2009,09,20,17,27,19.10
2009,09,20,17,28,19.00
2009,09,20,17,29,19.00
2009,09,20,17,30,18.90
2009,09,20,17,31,18.90
2009,09,20,17,32,18.90
2009,09,20,17,33,18.90
2009,09,20,17,34,18.90
2009,09,20,17,35,18.90
2009,09,20,17,36,18.90
2009,09,20,17,37,18.90
2009,09,20,17,38,18.90
2009,09,20,17,39,18.90
2009,09,20,17,40,18.90
2009,09,20,17,41,18.90
2009,09,20,17,42,18.90
2009,09,20,17,43,18.90
2009,09,20,17,44,18.90
2009,09,20,17,45,19.00
2009,09,20,17,46,19.10
2009,09,20,17,47,19.10
2009,09,20,17,48,19.10
2009,09,20,17,49,19.10
2009,09,20,17,50,19.00
2009,09,20,17,51,18.90
2009,09,20,17,52,18.90
2009,09,20,17,53,18.90
2009,09,20,17,54,18.90
2009,09,20,17,55,18.80
2009,09,20,17,56,18.80
2009,09,20,17,57,18.80
2009,09,20,17,58,18.70
2009,09,20,17,59,18.70
2009,09,20,18,00,18.60
2009,09,20,18,01,18.60
2009,09,20,18,02,18.50
2009,09,20,18,03,18.50
2009,09,20,18,04,18.50
2009,09,20,18,05,18.50
2009,09,20,18,06,18.40
2009,09,20,18,07,18.40
2009,09,20,18,08,18.40
2009,09,20,18,09,18.40
2009,09,20,18,10,18.40
2009,09,20,18,11,18.40
2009,09,20,18,12,18.40
2009,09,20,18,13,18.40
2009,09,20,18,14,18.40
2009,09,20,18,15,18.40
2009,09,20,18,16,18.30
2009,09,20,18,17,18.40
2009,09,20,18,18,18.30
2009,09,20,18,19,18.40
2009,09,20,18,20,18.40
2009,09,20,18,21,18.40
2009,09,20,18,22,18.40
2009,09,20,18,23,18.40
2009,09,20,18,24,18.40
2009,09,20,18,25,18.40
2009,09,20,18,26,18.40
2009,09,20,18,27,18.40
2009,09,20,18,28,18.40
2009,09,20,18,29,18.50
2009,09,20,18,30,18.50
2009,09,20,18,31,18.50
2009,09,20,18,32,18.50
2009,09,20,18,33,18.50
2009,09,20,18,34,18.50
2009,09,20,18,35,18.40
2009,09,20,18,36,18.40
2009,09,20,18,37,18.40
2009,09,20,18,38,18.40
2009,09,20,18,39,18.40
2009,09,20,18,40,18.30
2009,09,20,18,41,18.30
2009,09,20,18,42,18.20
2009,09,20,18,43,18.10
2009,09,20,18,44,18.00
2009,09,20,18,45,17.90
2009,09,20,18,46,17.80
2009,09,20,18,47,17.80
2009,09,20,18,48,17.70
2009,09,20,18,49,17.70
2009,09,20,18,50,17.60
2009,09,20,18,51,17.50
2009,09,20,18,52,17.40
2009,09,20,18,53,17.40
2009,09,20,18,54,17.30
2009,09,20,18,55,17.30
2009,09,20,18,56,17.30
2009,09,20,18,57,17.20
2009,09,20,18,58,17.20
2009,09,20,18,59,17.20
2009,09,20,19,00,17.10
2009,09,20,19,01,17.10
2009,09,20,19,02,17.10
2009,09,20,19,03,17.10
2009,09,20,19,04,17.00
2009,09,20,19,05,17.00
2009,09,20,19,06,17.00
2009,09,20,19,07,17.00
2009,09,20,19,08,17.00
2009,09,20,19,09,17.00
2009,09,20,19,10,17.00
2009,09,20,19,11,17.00
2009,09,20,19,12,17.00
2009,09,20,19,13,16.90
2009,09,20,19,14,17.00
2009,09,20,19,15,16.90
2009,09,20,19,16,16.90
2009,09,20,19,17,16.90
2009,09,20,19,18,16.90
2009,09,20,19,19,16.90
2009,09,20,19,20,16.90
2009,09,20,19,21,16.80
2009,09,20,19,22,16.80
2009,09,20,19,23,16.80
2009,09,20,19,24,16.70
2009,09,20,19,25,16.70
2009,09,20,19,26,16.70
2009,09,20,19,27,16.70
2009,09,20,19,28,16.60
2009,09,20,19,29,16.60
2009,09,20,19,30,16.50
2009,09,20,19,31,16.40
2009,09,20,19,32,16.30
2009,09,20,19,33,16.30
2009,09,20,19,34,16.30
2009,09,20,19,35,16.20
2009,09,20,19,36,16.20
2009,09,20,19,37,16.10
2009,09,20,19,38,16.10
2009,09,20,19,39,16.00
2009,09,20,19,40,15.90
2009,09,20,19,41,15.90
2009,09,20,19,42,15.90
2009,09,20,19,43,15.80
2009,09,20,19,44,15.80
2009,09,20,19,45,15.80
2009,09,20,19,46,15.70
2009,09,20,19,47,15.70
2009,09,20,19,48,15.70
2009,09,20,19,49,15.60
2009,09,20,19,50,15.60
2009,09,20,19,51,15.60
2009,09,20,19,52,15.50
2009,09,20,19,53,15.40
2009,09,20,19,54,15.40
2009,09,20,19,55,15.40
2009,09,20,19,56,15.40
2009,09,20,19,57,15.30
2009,09,20,19,58,15.30
2009,09,20,19,59,15.30
2009,09,20,20,00,15.30
2009,09,20,20,01,15.30
2009,09,20,20,02,15.30
2009,09,20,20,03,15.20
2009,09,20,20,04,15.20
2009,09,20,20,05,15.20
2009,09,20,20,06,15.20
2009,09,20,20,07,15.10
2009,09,20,20,08,15.10
2009,09,20,20,09,15.10
2009,09,20,20,10,15.00
2009,09,20,20,11,15.00
2009,09,20,20,12,15.00
2009,09,20,20,13,15.00
2009,09,20,20,14,15.00
2009,09,20,20,15,15.00
2009,09,20,20,16,15.00
2009,09,20,20,17,15.00
2009,09,20,20,18,14.90
2009,09,20,20,19,14.90
2009,09,20,20,20,14.90
2009,09,20,20,21,14.80
2009,09,20,20,22,14.80
2009,09,20,20,23,14.80
2009,09,20,20,24,14.70
2009,09,20,20,25,14.70
2009,09,20,20,26,14.70
2009,09,20,20,27,14.70
2009,09,20,20,28,14.60
2009,09,20,20,29,14.60
2009,09,20,20,30,14.60
2009,09,20,20,31,14.60
2009,09,20,20,32,14.60
2009,09,20,20,33,14.50
2009,09,20,20,34,14.50
2009,09,20,20,35,14.40
2009,09,20,20,36,14.40
2009,09,20,20,37,14.40
2009,09,20,20,38,14.30
2009,09,20,20,39,14.30
2009,09,20,20,40,14.30
2009,09,20,20,41,14.20
2009,09,20,20,42,14.20
2009,09,20,20,43,14.20
2009,09,20,20,44,14.20
2009,09,20,20,45,14.20
2009,09,20,20,46,14.10
2009,09,20,20,47,14.10
2009,09,20,20,48,14.10
2009,09,20,20,49,14.10
2009,09,20,20,50,14.00
2009,09,20,20,51,14.00
2009,09,20,20,52,14.00
2009,09,20,20,53,13.90
2009,09,20,20,54,13.90
2009,09,20,20,55,13.90
2009,09,20,20,56,13.80
2009,09,20,20,57,13.80
2009,09,20,20,58,13.80
2009,09,20,20,59,13.80
2009,09,20,21,00,13.70
2009,09,20,21,01,13.70
2009,09,20,21,02,13.70
2009,09,20,21,03,13.70
2009,09,20,21,04,13.70
2009,09,20,21,05,13.70
2009,09,20,21,06,13.60
2009,09,20,21,07,13.60
2009,09,20,21,08,13.60
2009,09,20,21,09,13.50
2009,09,20,21,10,13.50
2009,09,20,21,11,13.40
2009,09,20,21,12,13.40
2009,09,20,21,13,13.40
2009,09,20,21,14,13.40
2009,09,20,21,15,13.30
2009,09,20,21,16,13.30
2009,09,20,21,17,13.30
2009,09,20,21,18,13.20
2009,09,20,21,19,13.20
2009,09,20,21,20,13.20
2009,09,20,21,21,13.20
2009,09,20,21,22,13.10
2009,09,20,21,23,13.10
2009,09,20,21,24,13.10
2009,09,20,21,25,13.10
2009,09,20,21,26,13.10
2009,09,20,21,27,13.10
2009,09,20,21,28,13.10
2009,09,20,21,29,13.00
2009,09,20,21,30,12.90
2009,09,20,21,31,12.90
2009,09,20,21,32,12.90
2009,09,20,21,33,12.90
2009,09,20,21,34,12.90
2009,09,20,21,35,12.90
2009,09,20,21,36,12.80
2009,09,20,21,37,12.80
2009,09,20,21,38,12.80
2009,09,20,21,39,12.70
2009,09,20,21,40,12.70
2009,09,20,21,41,12.70
2009,09,20,21,42,12.70
2009,09,20,21,43,12.70
2009,09,20,21,44,12.70
2009,09,20,21,45,12.70
2009,09,20,21,46,12.70
2009,09,20,21,47,12.60
2009,09,20,21,48,12.60
2009,09,20,21,49,12.60
2009,09,20,21,50,12.60
2009,09,20,21,51,12.60
2009,09,20,21,52,12.60
2009,09,20,21,53,12.60
2009,09,20,21,54,12.50
2009,09,20,21,55,12.50
2009,09,20,21,56,12.50
2009,09,20,21,57,12.50
2009,09,20,21,58,12.40
2009,09,20,21,59,12.40
2009,09,20,22,00,12.40
2009,09,20,22,01,12.40
2009,09,20,22,02,12.40
2009,09,20,22,03,12.40
2009,09,20,22,04,12.40
2009,09,20,22,05,12.30
2009,09,20,22,06,12.30
2009,09,20,22,07,12.30
2009,09,20,22,08,12.30
2009,09,20,22,09,12.30
2009,09,20,22,10,12.30
2009,09,20,22,11,12.30
2009,09,20,22,12,12.30
2009,09,20,22,13,12.30
2009,09,20,22,14,12.30
2009,09,20,22,15,12.30
2009,09,20,22,16,12.30
2009,09,20,22,17,12.30
2009,09,20,22,18,12.30
2009,09,20,22,19,12.30
2009,09,20,22,20,12.30
2009,09,20,22,21,12.30
2009,09,20,22,22,12.20
2009,09,20,22,23,12.30
2009,09,20,22,24,12.20
2009,09,20,22,25,12.20
2009,09,20,22,26,12.20
2009,09,20,22,27,12.20
2009,09,20,22,28,12.20
2009,09,20,22,29,12.20
2009,09,20,22,30,12.20
2009,09,20,22,31,12.20
2009,09,20,22,32,12.20
2009,09,20,22,33,12.20
2009,09,20,22,34,12.20
2009,09,20,22,35,12.20
2009,09,20,22,36,12.20
2009,09,20,22,37,12.20
2009,09,20,22,38,12.20
2009,09,20,22,39,12.20
2009,09,20,22,40,12.20
2009,09,20,22,41,12.20
2009,09,20,22,42,12.20
2009,09,20,22,43,12.20
2009,09,20,22,44,12.20
2009,09,20,22,45,12.20
2009,09,20,22,46,12.20
2009,09,20,22,47,12.20
2009,09,20,22,48,12.20
2009,09,20,22,49,12.20
2009,09,20,22,50,12.20
2009,09,20,22,51,12.20
2009,09,20,22,52,12.20
2009,09,20,22,53,12.20
2009,09,20,22,54,12.10
2009,09,20,22,55,12.10
2009,09,20,22,56,12.10
2009,09,20,22,57,12.10
2009,09,20,22,58,12.10
2009,09,20,22,59,12.10
2009,09,20,23,00,12.10
2009,09,20,23,01,12.10
2009,09,20,23,02,12.10
2009,09,20,23,03,12.00
2009,09,20,23,04,12.00
2009,09,20,23,05,11.90
2009,09,20,23,06,11.90
2009,09,20,23,07,11.90
2009,09,20,23,08,11.90
2009,09,20,23,09,11.90
2009,09,20,23,10,11.90
2009,09,20,23,11,11.80
2009,09,20,23,12,11.80
2009,09,20,23,13,11.80
2009,09,20,23,14,11.80
2009,09,20,23,15,11.80
2009,09,20,23,16,11.70
2009,09,20,23,17,11.70
2009,09,20,23,18,11.70
2009,09,20,23,19,11.70
2009,09,20,23,20,11.70
2009,09,20,23,21,11.60
2009,09,20,23,22,11.60
2009,09,20,23,23,11.60
2009,09,20,23,24,11.60
2009,09,20,23,25,11.60
2009,09,20,23,26,11.60
2009,09,20,23,27,11.60
2009,09,20,23,28,11.50
2009,09,20,23,29,11.50
2009,09,20,23,30,11.50
2009,09,20,23,31,11.40
2009,09,20,23,32,11.40
2009,09,20,23,33,11.40
2009,09,20,23,34,11.40
2009,09,20,23,35,11.40
2009,09,20,23,36,11.40
2009,09,20,23,37,11.40
2009,09,20,23,38,11.40
2009,09,20,23,39,11.40
2009,09,20,23,40,11.40
2009,09,20,23,41,11.50
2009,09,20,23,42,11.50
2009,09,20,23,43,11.50
2009,09,20,23,44,11.50
2009,09,20,23,45,11.50
2009,09,20,23,46,11.50
2009,09,20,23,47,11.50
2009,09,20,23,48,11.50
2009,09,20,23,49,11.50
2009,09,20,23,50,11.50
2009,09,20,23,51,11.50
2009,09,20,23,52,11.50
2009,09,20,23,53,11.50
2009,09,20,23,54,11.60
2009,09,20,23,55,11.60
2009,09,20,23,56,11.60
2009,09,20,23,57,11.50
2009,09,20,23,58,11.50
2009,09,20,23,59,11.50
